[[{"header":{"parameterUnit":"m.s-1","parameterCategory":1,"la1":30.2991,"la2":30.254,"lo1":-89.0895,"lo2":-89.0444,"dy":0.0017,"dx":0.0017,"nx":28,"ny":28,"refTime":"2024-04-01T09:00:00:Z","depth":0,"parameterNumber":2,"parameterNumberName":"U-component_of_WINDS"},"data":[0,0,0,0,0,0,0,0,0,0,0,0,0,0,0,0,0,0,0,0,0,0,0,0,0,0,0,0,0,0,0,0,0,0,0,0,0,0,0,0,0,0,0,0,0,0,0,0,0,0,0,0,0,0,0,0,0,0,-2.2248,-2.2248,0,-2.2284,-2.2285,-2.2285,-2.2242,-2.2241,-2.2239,-2.2238,-2.2273,-2.2275,-2.2278,0,0,0,0,0,0,0,0,0,0,0,0,0,-2.2139,-2.2141,-2.2248,-2.2248,-2.2249,-2.2284,-2.2285,-2.2285,-2.2243,-2.2241,-2.2239,-2.2237,-2.2272,-2.2275,-2.2278,0,0,0,0,0,0,0,0,0,0,0,0,0,-2.2182,-2.2142,-2.2248,-2.2232,-2.2231,-2.2284,-2.2285,-2.2285,-2.2243,-2.2241,-2.2238,-2.2236,-2.2271,-2.2275,-2.2278,-2.2348,0,0,-2.2289,-2.2291,0,0,0,0,0,0,0,0,-2.2179,-2.2186,-2.2234,-2.2233,-2.2232,-2.2256,-2.2259,-2.2306,-2.2244,-2.2238,-2.2238,-2.2235,-2.2269,-2.2273,-2.2285,-2.235,-2.2351,-2.229,-2.2292,-2.2294,-2.2295,0,0,0,0,0,0,0,-2.2176,-2.2184,-2.2262,-2.2235,-2.2233,-2.2222,-2.2225,-2.2268,-2.2267,-2.2239,-2.2236,-2.2241,-2.2268,-2.2282,-2.2285,-2.2352,-2.229,-2.2293,-2.2295,-2.2297,-2.2473,-2.2476,0,0,0,0,0,0,-2.2175,-2.2182,-2.2261,-2.2263,-2.2199,-2.2226,-2.223,-2.2251,-2.2266,-2.2266,-2.2243,-2.2239,-2.2276,-2.2281,-2.2286,-2.2367,-2.2293,-2.2297,-2.2299,-2.2471,-2.2474,-2.2477,0,0,0,0,0,0,-2.2173,-2.2183,-2.226,-2.2222,-2.2231,-2.223,-2.2254,-2.2253,-2.2266,-2.2269,-2.2268,-2.2257,-2.2275,-2.2281,-2.2333,-2.2368,-2.2299,-2.2302,-2.2468,-2.2472,-2.2475,-2.253,0,0,0,0,0,0,-2.217,-2.2182,-2.221,-2.2223,-2.2233,-2.2306,-2.2257,-2.2255,-2.2273,-2.2268,-2.2282,-2.2282,-2.2273,-2.2328,-2.2336,-2.2371,-2.2305,-2.2465,-2.247,-2.2474,-2.2525,-2.2535,-2.2544,0,0,0,0,0,-2.2167,-2.2224,-2.2211,-2.2221,-2.2267,-2.2308,-2.2314,-2.2304,-2.2276,-2.2302,-2.2304,-2.2282,-2.2363,-2.2333,-2.2343,-2.2379,-2.2462,-2.2468,-2.2474,-2.2521,-2.2533,-2.2544,0,0,0,0,0,0,-2.2215,-2.2225,-2.2212,-2.2275,-2.2291,-2.2301,-2.2334,-2.2317,-2.2341,-2.2335,-2.2321,-2.2325,-2.2379,-2.2385,-2.2351,-2.2447,-2.2408,-2.2416,-2.244,-2.2452,-2.2461,-2.2458,-2.2308,0,0,0,0,0,-2.2233,-2.2266,-2.2274,-2.2329,-2.2338,-2.2335,-2.2352,-2.2343,-2.2359,-2.2365,-2.2371,-2.2387,-2.2415,-2.2434,-2.2461,-2.2527,-2.2527,-2.2556,-2.2566,-2.2573,-2.2579,-2.2612,-2.2624,-2.2495,-2.2495,-2.2495,0,0,-2.227,-2.228,-2.2302,-2.2338,-2.235,-2.2383,-2.2341,-2.2379,-2.2403,-2.2371,-2.2419,-2.2424,-2.244,-2.2498,-2.2524,-2.2504,-2.2616,-2.2581,-2.2587,-2.2589,-2.2619,-2.2631,-2.2642,-2.2499,-2.2499,-2.2498,0,0,-2.2355,-2.2367,-2.2413,-2.2425,-2.2443,-2.2441,-2.2452,-2.2465,-2.2466,-2.2515,-2.2491,-2.2519,-2.257,-2.2582,-2.2595,-2.2683,-2.2662,-2.2692,-2.2741,-2.2772,-2.2782,-2.2791,-2.282,-2.2831,-2.2699,-2.2699,-2.2699,0,-2.2398,-2.2449,-2.2438,-2.2477,-2.2493,-2.2466,-2.2512,-2.2524,-2.255,-2.256,-2.2539,-2.2601,-2.261,-2.2669,-2.269,-2.2703,-2.2713,-2.2689,-2.2782,-2.2791,-2.2799,-2.2826,-2.2837,-2.2703,-2.2702,-2.2702,-2.2701,0,-2.25,-2.2536,-2.2571,-2.2596,-2.2616,-2.2658,-2.2652,-2.2674,-2.2663,-2.2662,-2.2711,-2.2721,-2.2749,-2.2763,-2.2753,-2.282,-2.2807,-2.2784,-2.2744,-2.2814,-2.2839,-2.285,-2.2707,-2.2706,-2.2705,-2.2704,0,0,-2.2615,-2.2634,-2.2646,-2.2656,-2.2674,-2.2701,-2.2741,-2.2768,-2.2785,-2.2804,-2.2836,-2.288,-2.2858,-2.2872,-2.2863,-2.2892,-2.2957,-2.2865,-2.2865,-2.2879,-2.3029,-2.3044,-2.3056,-2.2945,-2.2947,-2.2949,-2.3027,0,-2.2698,-2.2768,-2.2759,-2.2825,-2.2856,-2.2831,-2.2866,-2.288,-2.2881,-2.2906,-2.2907,-2.2937,-2.2908,-2.2916,-2.2943,-2.2944,-2.2987,-2.2938,-2.2972,-2.2973,-2.2966,-2.307,-2.3086,-2.3159,-2.3037,-2.3039,-2.304,0,-2.2803,-2.2825,-2.2895,-2.2905,-2.2918,-2.295,-2.2973,-2.2998,-2.3013,-2.3011,-2.3028,-2.3013,-2.3052,-2.3014,-2.3066,-2.3033,-2.3046,-2.3049,-2.3052,-2.3052,-2.3009,-2.307,-2.3183,-2.3193,-2.3056,-2.3054,-2.3053,0,-2.2876,-2.2923,-2.297,-2.298,-2.2995,-2.3017,-2.3024,-2.3037,-2.3053,-2.3073,-2.3083,-2.3108,-2.3121,-2.314,-2.3132,-2.3106,-2.3185,-2.3147,-2.3183,-2.3183,-2.3198,-2.3197,-2.3311,-2.3212,-2.3212,-2.3212,-2.3212,0,-2.2967,-2.301,-2.3003,-2.3031,-2.3078,-2.3067,-2.3113,-2.3117,-2.3129,-2.3156,-2.3137,-2.3164,-2.3153,-2.3179,-2.3173,-2.3215,-2.3222,-2.322,-2.3218,-2.322,-2.322,-2.3227,-2.322,-2.3215,-2.3214,-2.3213,-2.3213,0,-2.3055,-2.3053,-2.3102,-2.3112,-2.3115,-2.3149,-2.3157,-2.3183,-2.3182,-2.3218,-2.3225,-2.3224,-2.3253,-2.3248,-2.328,-2.3276,-2.3328,-2.3321,-2.3323,-2.332,-2.3355,-2.3351,-2.3476,-2.349,-2.3384,-2.3385,-2.3386,0,-2.3112,-2.3144,-2.3158,-2.3175,-2.3184,-2.3212,-2.3229,-2.322,-2.3237,-2.3256,-2.3279,-2.3306,-2.3327,-2.3374,-2.3376,-2.3399,-2.3391,-2.3433,-2.3394,-2.3395,-2.3388,-2.3385,-2.3387,-2.344,-2.3441,-2.3442,-2.3443,0,-2.3213,-2.321,-2.3234,-2.3258,-2.3278,-2.3297,-2.3313,-2.3328,-2.332,-2.3341,-2.337,-2.3386,-2.3419,-2.3445,-2.3467,-2.3473,-2.3456,-2.3455,-2.3464,-2.3466,-2.3464,-2.3463,-2.334,-2.3452,-2.3451,-2.345,-2.345,-2.3449,-2.3285,-2.3311,-2.3324,-2.3352,-2.3363,-2.3379,-2.3403,-2.3405,-2.343,-2.3455,-2.3449,-2.3481,-2.3494,-2.3521,-2.353,-2.3555,-2.3539,-2.3553,-2.3556,-2.3558,-2.3561,-2.3463,-2.3559,-2.3559,-2.3559,-2.3558,-2.3558,0,-2.3382,-2.3389,-2.3414,-2.3438,-2.3459,-2.3442,-2.3459,-2.3477,-2.3506,-2.352,-2.3541,-2.3573,-2.3599,-2.3602,-2.3626,-2.3644,-2.3637,-2.3651,-2.3648,-2.3649,-2.3576,-2.3564,-2.3656,-2.3656,-2.3656,-2.3656,-2.3656,-2.3656,-2.3434,-2.3477,-2.3476,-2.3523,-2.353,-2.3562,-2.3572,-2.3586,-2.3596,-2.3633,-2.3654,-2.3657,-2.3666,-2.369,-2.3712,-2.3712,-2.372,-2.3736,-2.3733,-2.3664,-2.3654,-2.3645,-2.3634,-2.3739,-2.3739,-2.3804,-2.3805,-2.3805]},{"header":{"parameterUnit":"m.s-1","parameterCategory":1,"la1":30.2991,"la2":30.254,"lo1":-89.0895,"lo2":-89.0444,"dy":0.0017,"dx":0.0017,"nx":28,"ny":28,"refTime":"2024-04-01T09:00:00:Z","depth":0,"parameterNumber":3,"parameterNumberName":"V-component_of_WINDS"},"data":[0,0,0,0,0,0,0,0,0,0,0,0,0,0,0,0,0,0,0,0,0,0,0,0,0,0,0,0,0,0,0,0,0,0,0,0,0,0,0,0,0,0,0,0,0,0,0,0,0,0,0,0,0,0,0,0,0,0,3.4197,3.4197,0,3.4162,3.4161,3.4161,3.4199,3.42,3.4202,3.4203,3.4162,3.416,3.4157,0,0,0,0,0,0,0,0,0,0,0,0,0,3.4299,3.4297,3.4197,3.4197,3.4196,3.4162,3.4161,3.4161,3.4199,3.4201,3.4202,3.4204,3.4163,3.416,3.4157,0,0,0,0,0,0,0,0,0,0,0,0,0,3.4258,3.4296,3.4197,3.4211,3.4212,3.4162,3.4161,3.416,3.4198,3.4201,3.4203,3.4205,3.4164,3.416,3.4156,3.4089,0,0,3.4145,3.4143,0,0,0,0,0,0,0,0,3.426,3.4254,3.421,3.421,3.4211,3.4187,3.4182,3.4136,3.4198,3.4203,3.4203,3.4206,3.4168,3.4164,3.4152,3.4087,3.4085,3.4145,3.4142,3.4141,3.414,0,0,0,0,0,0,0,3.4263,3.4256,3.4183,3.4209,3.421,3.422,3.4216,3.4173,3.4174,3.4203,3.4206,3.4201,3.4169,3.4156,3.4152,3.4084,3.4145,3.4141,3.4139,3.4138,3.3968,3.3966,0,0,0,0,0,0,3.4264,3.4258,3.4184,3.4182,3.4242,3.4216,3.4212,3.4193,3.4174,3.4174,3.42,3.4203,3.4161,3.4156,3.415,3.4075,3.4141,3.4137,3.4135,3.3971,3.3968,3.3966,0,0,0,0,0,0,3.4267,3.4258,3.4186,3.4221,3.4212,3.4212,3.4189,3.4191,3.4178,3.4172,3.4172,3.4186,3.4163,3.4156,3.4106,3.4073,3.4136,3.4132,3.3973,3.397,3.3967,3.3919,0,0,0,0,0,0,3.4269,3.4258,3.4232,3.422,3.421,3.4141,3.4187,3.4188,3.4172,3.4176,3.4159,3.4158,3.4164,3.4111,3.4102,3.4069,3.4129,3.3976,3.3972,3.3968,3.3924,3.3915,3.3907,0,0,0,0,0,3.4273,3.4217,3.423,3.4221,3.4178,3.4139,3.4134,3.4143,3.4169,3.4143,3.4141,3.4159,3.4079,3.4106,3.4096,3.4061,3.3978,3.3973,3.3968,3.3927,3.3916,3.3907,0,0,0,0,0,0,3.4221,3.4216,3.423,3.4169,3.4155,3.4146,3.4113,3.413,3.4106,3.4111,3.4122,3.4118,3.4066,3.4059,3.4089,3.3999,3.4033,3.4025,3.4005,3.3995,3.3986,3.399,3.4126,0,0,0,0,0,3.4204,3.4174,3.417,3.4116,3.4109,3.4113,3.4096,3.4105,3.409,3.4083,3.4076,3.406,3.4032,3.4013,3.3986,3.3923,3.3922,3.3895,3.3887,3.388,3.3874,3.3845,3.3834,3.3949,3.3949,3.3949,0,0,3.4165,3.4159,3.4138,3.4106,3.4096,3.4066,3.4107,3.4071,3.4049,3.4077,3.4031,3.4026,3.4009,3.3954,3.3929,3.3946,3.3842,3.3874,3.3868,3.3865,3.3839,3.3828,3.3818,3.3945,3.3946,3.3947,0,0,3.4081,3.4071,3.4029,3.402,3.4006,3.4009,3.3999,3.3989,3.3988,3.3943,3.3965,3.3939,3.3889,3.3878,3.3865,3.3784,3.3802,3.3775,3.3731,3.3703,3.3694,3.3686,3.3661,3.3651,3.3769,3.3768,3.3768,0,3.4034,3.399,3.4004,3.3969,3.3956,3.3985,3.3943,3.3932,3.3909,3.39,3.392,3.3862,3.3852,3.3798,3.3779,3.3767,3.3757,3.3777,3.3695,3.3687,3.368,3.3656,3.3646,3.3766,3.3766,3.3766,3.3766,0,3.3936,3.3905,3.3872,3.3854,3.3837,3.3799,3.3808,3.379,3.3802,3.3804,3.376,3.3751,3.3725,3.3713,3.3722,3.3661,3.3673,3.3693,3.3728,3.3666,3.3644,3.3634,3.3761,3.3762,3.3763,3.3764,0,0,3.3814,3.3809,3.3797,3.3792,3.3782,3.3758,3.3723,3.3701,3.3687,3.3671,3.3643,3.3604,3.3625,3.3611,3.362,3.3596,3.3538,3.362,3.362,3.3608,3.3474,3.346,3.3449,3.355,3.3548,3.3546,3.3477,0,3.3732,3.3673,3.3688,3.3629,3.3603,3.3633,3.3603,3.3594,3.3596,3.3575,3.3577,3.3551,3.3579,3.3572,3.3549,3.3549,3.3511,3.3554,3.3525,3.3524,3.353,3.3437,3.342,3.3355,3.3468,3.3466,3.3465,0,3.3627,3.3613,3.3553,3.3553,3.3543,3.3515,3.35,3.3479,3.3471,3.3475,3.3463,3.3479,3.3446,3.3482,3.3438,3.3467,3.3456,3.3456,3.3453,3.3452,3.3491,3.3435,3.3334,3.3325,3.3451,3.3452,3.3453,0,3.3549,3.3514,3.3476,3.347,3.3467,3.3449,3.3447,3.3441,3.3429,3.3415,3.3409,3.339,3.338,3.3365,3.3377,3.3401,3.3333,3.3368,3.3336,3.3336,3.332,3.3321,3.3219,3.331,3.3311,3.3311,3.3311,0,3.3457,3.3419,3.3442,3.3417,3.3378,3.3397,3.3357,3.3359,3.3355,3.3333,3.3356,3.3335,3.335,3.3331,3.3339,3.3304,3.3298,3.3302,3.3305,3.3301,3.3301,3.3294,3.33,3.3308,3.3309,3.3309,3.331,0,3.3362,3.3375,3.3335,3.3339,3.334,3.3311,3.3314,3.3293,3.33,3.3272,3.3266,3.3276,3.3255,3.3265,3.3241,3.3248,3.3204,3.3211,3.3207,3.321,3.3179,3.3183,3.307,3.3057,3.3155,3.3154,3.3153,0,3.3303,3.3276,3.3279,3.3268,3.3266,3.3245,3.3235,3.3254,3.3242,3.3235,3.3215,3.3197,3.3184,3.3149,3.3153,3.3137,3.3146,3.3108,3.3143,3.3142,3.3149,3.3152,3.3151,3.3101,3.3099,3.3099,3.3098,0,3.3198,3.3208,3.3193,3.3182,3.317,3.3161,3.3154,3.3143,3.3162,3.3148,3.3129,3.3119,3.3099,3.3081,3.3069,3.3067,3.3086,3.3087,3.308,3.3075,3.3076,3.3079,3.319,3.3089,3.309,3.3091,3.3091,3.3092,3.3121,3.3101,3.3102,3.3086,3.3085,3.3079,3.3062,3.3069,3.3053,3.304,3.3052,3.303,3.3028,3.3014,3.301,3.2994,3.3009,3.2997,3.2994,3.2991,3.2989,3.3078,3.2991,3.2991,3.2991,3.2992,3.2992,0,3.3021,3.3024,3.301,3.3003,3.2991,3.3014,3.3009,3.2998,3.2979,3.2976,3.2965,3.2945,3.293,3.2936,3.2923,3.2909,3.2918,3.2905,3.2907,3.2907,3.2974,3.2984,3.2899,3.2899,3.2899,3.2899,3.2899,3.2899,3.2967,3.2936,3.2947,3.2916,3.292,3.2901,3.2897,3.2893,3.2892,3.287,3.2859,3.2865,3.2866,3.2855,3.2843,3.2845,3.284,3.2825,3.283,3.2893,3.2902,3.2911,3.292,3.2823,3.2823,3.2765,3.2765,3.2764]}]]